Location: Leipzig
(51.3392°N, 12.3528°E)
Time: 23:28:45
(UTC+01:00)

ISS - Pass Details

Date: 16 November 2017
Orbit: 402 x 407 km, 51.6° (Epoch: 24 November)

Event Time Altitude Azimuth Distance (km) Brightness Sun altitude
Exits shadow 05:38:07 18° 207° (SSW) 1,058 -1.9 -17.2°
Drops below altitude 10° 05:40:06 10° 170° (S) 1,450 -0.8 -16.9°
Sets 05:42:34 0° 152° (SSE) 2,305 0.6 -16.5°
